This is the latest recevied weather packets stored in our database for station/object N6SPP. If no packets are shown the sender has not sent any weather packets the latest 1 day(s).
| Time | Temp. | Humidity | Pressure | Rain* | Wind** | Luminosity | Snow |
|---|---|---|---|---|---|---|---|
| 1778040483 | 14.44° C | 78% | 1018.9 hPa | 0 mm | - | 0 W/m² | - |
| 1778039574 | 14.44° C | 77% | 1018.8 hPa | 0 mm | - | 0 W/m² | - |
| 1778039271 | 15° C | 77% | 1018.7 hPa | 0 mm | - | 0 W/m² | - |
| 1778038968 | 15° C | 76% | 1018.7 hPa | 0 mm | - | 0 W/m² | - |
| 1778038665 | 15° C | 76% | 1018.4 hPa | 0 mm | - | 0 W/m² | - |
| 1778038362 | 15° C | 76% | 1018.4 hPa | 0 mm | - | 0 W/m² | - |
| 1778038059 | 15° C | 76% | 1018.4 hPa | 0 mm | - | 0 W/m² | - |
| 1778037756 | 15° C | 75% | 1018.1 hPa | 0 mm | - | 0 W/m² | - |
| 1778037452 | 15° C | 75% | 1018.2 hPa | 0 mm | - | 0 W/m² | - |
| 1778037150 | 15° C | 75% | 1018.1 hPa | 0 mm | - | 1 W/m² | - |
| 1778036848 | 15° C | 75% | 1018.1 hPa | 0 mm | - | 1 W/m² | - |
| 1778036242 | 15° C | 75% | 1018.2 hPa | 0 mm | - | 3 W/m² | - |
| 1778035938 | 15° C | 75% | 1017.9 hPa | 0 mm | - | 5 W/m² | - |
| 1778035635 | 15.56° C | 75% | 1017.9 hPa | 0 mm | - | 7 W/m² | - |
| 1778035332 | 15.56° C | 75% | 1018 hPa | 0 mm | - | 9 W/m² | - |
| 1778035028 | 15.56° C | 75% | 1017.7 hPa | 0 mm | - | 11 W/m² | - |
| 1778034422 | 15.56° C | 75% | 1017.6 hPa | 0 mm | - | 15 W/m² | - |
| 1778034120 | 15.56° C | 75% | 1017.5 hPa | 0 mm | - | 18 W/m² | - |
| 1778033818 | 16.11° C | 75% | 1017.5 hPa | 0 mm | - | 21 W/m² | - |
| 1778033211 | 16.11° C | 75% | 1017.5 hPa | 0 mm | - | 28 W/m² | - |
| 1778032606 | 16.11° C | 74% | 1017.6 hPa | 0 mm | - | 31 W/m² | - |
| 1778032303 | 16.67° C | 74% | 1017.4 hPa | 0 mm | - | 34 W/m² | - |
| 1778031995 | 16.67° C | 74% | 1017.6 hPa | 0 mm | - | 47 W/m² | - |
| 1778031691 | 16.67° C | 73% | 1017.5 hPa | 0 mm | - | 53 W/m² | - |
| 1778031086 | 16.67° C | 73% | 1017.5 hPa | 0 mm | - | 74 W/m² | - |
* Rain latest hour (hover to see other rain measurements)
** Current wind speed in m/s (hover to see current wind gust speed)